DW8546 Weather Reports


Display with metric or nautical units.
time (UTC)temp
F
wind
direction
speed
MPH
gust
MPH
rain 1hr
in
rain 24hr
in
rain mn
in
humidity
%
barometer
mb
20190117163131 31 303 0.0 0.0 0.00 0.00 0.00 97 937.8
20190117162547 32 321 0.0 0.0 0.00 0.00 0.00 97 936.7
20190117161634 31 325 0.0 0.0 0.00 0.00 0.00 97 937.9
20190117155543 32 309 0.0 0.0 0.00 0.00 0.00 97 936.8
20190117154651 31 314 0.0 0.0 0.00 0.00 0.00 97 937.9
20190117153147 31 331 0.0 0.0 0.00 0.00 0.00 97 938.1
20190117152539 31 338 0.0 0.0 0.00 0.00 0.00 97 937.0
20190117151715 31 324 0.0 0.0 0.00 0.00 0.00 97 938.0
20190117150201 31 341 0.0 0.0 0.00 0.00 0.00 97 937.9
20190117144637 31 299 0.0 0.0 0.00 0.00 0.00 97 937.9
20190117143200 31 316 0.0 1.0 0.00 0.00 0.00 97 938.0
20190117142550 31 333 0.0 1.0 0.00 0.00 0.00 97 936.9
20190117140203 31 333 0.0 1.0 0.00 0.00 0.00 96 938.0
20190117135545 31 338 0.0 1.0 0.00 0.00 0.00 96 937.0
20190117134611 31 338 0.0 0.0 0.00 0.00 0.00 96 938.1
20190117133145 30 316 0.0 0.0 0.00 0.00 0.00 96 938.2
20190117132539 31 316 0.0 0.0 0.00 0.00 0.00 96 937.3
20190117131631 30 316 0.0 0.0 0.00 0.00 0.00 96 938.3
20190117130208 30 316 0.0 0.0 0.00 0.00 0.00 96 938.5
20190117125554 31 316 0.0 0.0 0.00 0.00 0.00 96 937.5
20190117124650 30 316 0.0 0.0 0.00 0.00 0.00 96 938.6
20190117123214 30 316 0.0 0.0 0.00 0.00 0.00 96 938.7
20190117122550 31 316 0.0 0.0 0.00 0.00 0.00 96 937.8
20190117121843 31 316 0.0 0.0 0.00 0.00 0.00 96 938.9
20190117120126 31 330 0.0 1.0 0.00 0.00 0.00 96 939.1
20190117115546 31 328 0.0 1.0 0.00 0.00 0.00 96 938.1
20190117114636 31 321 0.0 1.0 0.00 0.00 0.00 96 939.3
20190117113145 30 15 0.0 0.0 0.00 0.00 0.00 96 939.6
20190117112541 31 15 0.0 0.0 0.00 0.00 0.00 96 938.6
20190117111626 30 15 0.0 0.0 0.00 0.00 0.00 96 939.8
20190117110118 30 18 0.0 0.0 0.00 0.00 0.00 96 940.0
20190117105552 31 18 0.0 0.0 0.00 0.00 0.00 96 939.0
20190117104647 30 18 0.0 0.0 0.00 0.00 0.00 96 940.2
20190117103119 30 351 0.0 1.0 0.00 0.00 0.00 96 940.5
20190117102546 31 29 0.0 1.0 0.00 0.00 0.00 96 939.4
20190117101628 30 33 0.0 0.0 0.00 0.00 0.00 96 940.6
20190117100153 31 330 0.0 3.0 0.00 0.00 0.00 96 940.8
20190117095540 31 346 1.0 3.0 0.00 0.00 0.00 96 939.7
20190117094709 30 292 0.0 2.0 0.00 0.00 0.00 96 941.0
20190117093156 30 4 0.0 1.0 0.00 0.00 0.00 95 941.2
20190117092555 31 338 0.0 0.0 0.00 0.00 0.00 95 940.1
20190117091713 30 311 0.0 0.0 0.00 0.00 0.00 95 941.6
20190117090217 30 326 0.0 1.0 0.00 0.00 0.00 95 941.6
20190117085550 31 339 0.0 1.0 0.00 0.00 0.00 95 940.6
20190117083230 31 8 0.0 0.0 0.00 0.00 0.00 95 942.3
20190117082550 31 8 0.0 0.0 0.00 0.00 0.00 94 941.4
20190117081640 31 8 0.0 0.0 0.00 0.00 0.00 94 942.6
20190117080145 31 8 0.0 0.0 0.00 0.00 0.00 94 942.9
20190117075544 31 8 0.0 0.0 0.00 0.00 0.00 94 941.9
20190117074642 31 8 0.0 0.0 0.00 0.00 0.00 94 943.2
20190117073142 31 4 0.0 1.0 0.00 0.00 0.00 94 943.3
20190117072545 31 356 0.0 0.0 0.00 0.00 0.00 93 942.3
20190117071743 31 357 0.0 0.0 0.00 0.00 0.00 93 943.5
20190117070124 31 15 0.0 1.0 0.00 0.00 0.00 93 943.7
20190117065556 31 15 0.0 0.0 0.00 0.00 0.00 93 942.5
20190117064646 31 15 0.0 2.0 0.00 0.00 0.00 93 943.7
20190117063141 31 338 0.0 2.0 0.00 0.00 0.00 93 944.0
20190117062552 31 18 0.0 2.0 0.00 0.00 0.00 93 942.8
20190117061601 31 359 0.0 1.0 0.00 0.00 0.00 92 944.0
20190117060147 31 38 0.0 0.0 0.00 0.00 0.00 92 944.3
20190117055547 31 38 0.0 0.0 0.00 0.00 0.00 91 943.1
20190117054618 31 38 0.0 0.0 0.00 0.00 0.00 91 944.4
20190117053102 31 349 0.0 1.0 0.00 0.00 0.00 91 944.6
20190117051644 31 321 0.0 5.0 0.00 0.00 0.00 90 944.8
20190117050211 32 339 1.0 2.0 0.00 0.00 0.00 89 944.8
20190117045549 32 10 1.0 2.0 0.00 0.00 0.00 88 943.8
20190117044632 32 290 0.0 0.0 0.00 0.00 0.00 87 945.1
20190117043109 32 290 0.0 2.0 0.00 0.00 0.00 87 945.1
20190117042544 33 290 0.0 2.0 0.00 0.00 0.00 87 944.0
20190117041813 32 309 0.0 5.0 0.00 0.00 0.00 87 945.2
20190117040209 32 321 4.0 6.0 0.00 0.00 0.00 86 945.2
20190117035558 32 311 2.0 4.0 0.00 0.00 0.00 87 944.0
20190117034644 32 304 0.0 0.0 0.00 0.00 0.00 87 945.4
20190117033217 32 304 0.0 0.0 0.00 0.00 0.00 86 945.6
20190117032553 32 304 0.0 1.0 0.00 0.00 0.00 86 944.5
20190117031702 32 7 0.0 1.0 0.00 0.00 0.00 85 945.7
20190117030216 32 357 0.0 0.0 0.00 0.00 0.00 84 946.1
20190117025550 32 358 0.0 0.0 0.00 0.00 0.00 84 945.0
20190117024658 32 359 0.0 1.0 0.00 0.00 0.00 84 946.4
20190117023147 32 334 0.0 2.0 0.00 0.00 0.00 85 946.5
20190117022545 32 314 1.0 2.0 0.00 0.00 0.00 84 945.1
20190117020002 32 18 0.0 0.0 0.00 0.00 0.00 85 946.8
20190117015600 32 18 0.0 0.0 0.00 0.00 0.00 85 945.6
20190117014659 32 18 0.0 0.0 0.00 0.00 0.00 85 946.8
20190117013201 32 18 0.0 0.0 0.00 0.00 0.00 85 946.6
20190117012549 32 18 0.0 0.0 0.00 0.00 0.00 84 945.6
20190117011658 32 18 0.0 0.0 0.00 0.00 0.00 84 946.9
20190117010200 32 18 0.0 0.0 0.00 0.00 0.00 83 947.1
20190117005545 33 18 0.0 0.0 0.00 0.00 0.00 83 945.8
20190117004508 32 18 0.0 0.0 0.00 0.00 0.00 83 947.1
20190117003006 32 18 0.0 2.0 0.00 0.00 0.00 82 947.2
20190117002601 33 18 1.0 3.0 0.00 0.00 0.00 82 945.9
20190117001646 33 359 0.0 2.0 0.00 0.00 0.00 83 947.1
20190117000152 33 198 0.0 1.0 0.00 0.00 0.00 82 947.3
20190116235556 33 166 1.0 1.0 0.00 0.00 0.00 82 946.0
20190116234743 33 186 0.0 1.0 0.00 0.00 0.00 82 947.2
20190116233137 33 157 0.0 0.0 0.00 0.00 0.00 82 947.1
20190116232553 33 157 0.0 0.0 0.00 0.00 0.00 82 946.1
20190116231634 33 157 0.0 0.0 0.00 0.00 0.00 81 947.4
20190116230149 33 153 0.0 0.0 0.00 0.00 0.00 81 947.6
20190116225547 34 154 0.0 0.0 0.00 0.00 0.00 80 946.4
20190116224749 34 148 0.0 0.0 0.00 0.00 0.00 81 947.7
20190116223111 33 148 0.0 1.0 0.00 0.00 0.00 80 947.9
20190116222543 34 62 0.0 0.0 0.00 0.00 0.00 81 946.7
20190116221520 33 61 0.0 1.0 0.00 0.00 0.00 80 948.1
20190116220002 33 33 0.0 0.0 0.00 0.00 0.00 80 948.1
20190116215600 34 33 0.0 0.0 0.00 0.00 0.00 81 946.8
20190116214804 33 33 0.0 0.0 0.00 0.00 0.00 81 948.1
20190116213134 32 33 0.0 1.0 0.00 0.00 0.00 81 948.1
20190116212556 33 23 0.0 1.0 0.00 0.00 0.00 82 946.7
20190116211725 33 23 0.0 0.0 0.00 0.00 0.00 82 948.4
20190116210208 32 23 0.0 0.0 0.00 0.00 0.00 83 948.4
20190116205552 32 23 0.0 1.0 0.00 0.00 0.00 83 947.1
20190116204633 32 23 0.0 1.0 0.00 0.00 0.00 82 948.6
20190116203148 32 23 0.0 0.0 0.00 0.00 0.00 82 948.7
20190116202546 32 23 0.0 0.0 0.00 0.00 0.00 83 947.4
20190116201504 31 335 0.0 0.0 0.00 0.00 0.00 84 949.0
20190116200340 31 335 0.0 1.0 0.00 0.00 0.00 85 949.1
20190116195558 31 27 0.0 2.0 0.00 0.00 0.00 84 947.7
20190116194810 30 32 0.0 2.0 0.00 0.00 0.00 85 949.3
20190116193157 30 338 0.0 2.0 0.00 0.00 0.00 85 949.5
20190116192554 30 340 1.0 3.0 0.00 0.00 0.00 85 948.2
20190116191749 30 338 0.0 2.0 0.00 0.00 0.00 85 949.6
20190116190206 30 37 0.0 2.0 0.00 0.00 0.00 86 949.8
20190116185550 30 29 0.0 1.0 0.00 0.00 0.00 87 948.5
20190116184711 29 345 0.0 2.0 0.00 0.00 0.00 86 950.0
20190116183200 30 8 0.0 1.0 0.00 0.00 0.00 86 950.1
20190116182545 30 17 0.0 1.0 0.00 0.00 0.00 85 948.7
20190116181508 30 18 0.0 0.0 0.00 0.00 0.00 87 950.3
20190116180005 29 18 0.0 0.0 0.00 0.00 0.00 88 950.3
20190116175559 29 18 0.0 0.0 0.00 0.00 0.00 88 948.9
20190116174702 29 18 0.0 0.0 0.00 0.00 0.00 87 950.3
20190116173120 28 290 0.0 0.0 0.00 0.00 0.00 88 950.1
20190116172554 29 290 0.0 0.0 0.00 0.00 0.00 88 948.7
20190116171808 28 346 0.0 0.0 0.00 0.00 0.00 88 950.2
20190116170156 28 346 0.0 1.0 0.00 0.00 0.00 88 950.2
20190116165549 28 346 0.0 1.0 0.00 0.00 0.00 88 948.7
20190116164650 28 338 0.0 2.0 0.00 0.00 0.00 89 950.2